Regional Weather Roundup
Issued by NWS Sioux Falls, SD

Home | Current Version | Previous Version | Text Only | Print | Product List | Glossary On
Versions: 1 2 3 4 5 6 7 8 9 10 11 12 13 14 15 16 17 18 19 20 21 22 23 24 25 26 27 28 29 30 31 32 33 34 35 36 37 38 39 40 41 42 43 44 45 46 47 48 49 50
000
ASUS43 KFSD 030202
RWRFSD

WEATHER ROUNDUP FOR SE SOUTH DAKOTA/SW MINNESOTA/NW IOWA
NATIONAL WEATHER SERVICE SIOUX FALLS SD
800 PM CST MON MAR 02 2015

NOTE: "FAIR" INDICATES FEW OR NO CLOUDS BELOW 12,000 FEET WITH NO
SIGNIFICANT WEATHER AND OR OBSTRUCTIONS TO VISIBILITY.


SDZ038>040-050-052>070-030300-
SOUTHEAST SOUTH DAKOTA

CITY           SKY/WX    TMP DP  RH WIND       PRES   REMARKS
CHAMBERLAIN    NOT AVBL
HURON          CLOUDY    31  20  63 SE16G25   29.88F WCI  20
MADISON        CLOUDY    27  25  93 S16       29.94F WCI  14
MITCHELL       CLOUDY    33  20  58 MISG      29.91F
SIOUX FALLS    CLOUDY    29  21  72 SE17G25   29.97F WCI  17
WINNER         FAIR      38  16  40 S12       29.79S
YANKTON        CLOUDY    36  18  48 SE17      29.96F
$$

MNZ071-072-080-081-089-090-097-098-030300-
SOUTHWEST MINNESOTA

CITY           SKY/WX    TMP DP  RH WIND       PRES   REMARKS
FAIRMONT       CLOUDY    23  16  74 SE18      30.10F WCI   9
JACKSON        CLOUDY    27  19  74 SE13      30.08F WCI  16
LUVERNE        CLOUDY    30  23  74 SE14      30.01F WCI  20
MARSHALL       CLOUDY    27  18  69 S17       30.04F WCI  14
MONTEVIDEO     CLOUDY    25  19  80 S14G21    30.04F WCI  13
PIPESTONE      CLOUDY    27  21  80 S16G22    29.97F WCI  14
REDWOOD FALLS  CLOUDY    25  19  78 S17       30.07F WCI  12
TRACY          CLOUDY    26  21  79 S12G21    30.03F WCI  16
WINDOM         CLOUDY    25  19  80 SE14      30.07F WCI  13
WORTHINGTON    CLOUDY    25  18  74 SE17      30.05F WCI  11
$$

IAZ001>003-012>014-020>022-031-032-NEZ013-014-SDZ071-030300-
NORTHWEST IOWA

CITY           SKY/WX    TMP DP  RH WIND       PRES   REMARKS
DENISON        CLOUDY    30  21  69 SE13      30.06F WCI  20
ESTHERVILLE    CLOUDY    24  19  81 SE18      30.09F WCI  10
SIOUX CITY     CLOUDY    35  22  58 SE13      30.02F WCI  26
SPENCER        CLOUDY    27  19  72 SE17      30.08F WCI  14
$$

ABBREVIATIONS USED IN REMARKS
   TC - TEMPERATURE IN CELSIUS
  WCI - WIND CHILL INDEX
   HX - HEAT INDEX
  VSB - VISIBILITY




USA.gov is the U.S. government's official web portal to all federal, state and local government web resources and services.